SCP
0 0 0 0 0 0 0 0 0 0 0 0 0 0 0 0 0 0 0 0 0 0 0 0 0 0 0 0 0 0 0 0 0 0 0 0 0 0 0 0 -0 0 0
0 0 0 0 0 0 0 0 0 0 0 0 0 0 0 0 0 0 0 0 0 0 0 0 0 0 0 0 0 0 0 0 0 0 0 0 0 0 0 0 0 0 0
0 0 0 0 0 0 0 0 0 0 0 0 0 0 0 0 0 0 0 0 0 0 0 0 0 0 0 0 0 0 0 0 0 0 0 0 0 0 0 0 0 0 0
0 0 0 0 0 0 0 0 0 0 0 0 0 0 0 0 0 0 0 0 0 0 0 0 0 0 0 0 0 0 0 0 0 0 0 0 0 0 0 0 0 0 0
0 0 0 0 0 0 0 0 0 0 0 0 0 0 0 0 0 0 0 0 0 0 0 0 0 0 0 0 0 0 0 0 0 0 0 0 0 0 0 0 0 0 0
0 0 0 0 0 0 0 0 0 0 0 0 0 0 0 0 0 0 0 0 0 0 0 0 0 0 0 0 0 0 0 0 0 0 0 0 0 0 0 0 0 0 0
0 0 0 0 0 0 0 0 0 0 0 0 0 0 0 0 0 0 0 0 0 0 0 0 0 0 0 0 0 0 0 0 0 0 0 0 0 0 0 0 0 0 0
0 0 0 0 0 0 0 0 0 0 0 0 0 0 0 0 0 0 0 0 0 0 0 0 0 0 0 0 0 0 0 0 0 0 0 0 0 0 0 0 0 0 0
0 0 0 0 0 0 0 0 0 0 0 0 0 0 0 0 0 0 0 0 0 0 0 0 0 0 0 0 0 0 0 0 0 0 0 0 0 0 0 0 0 0 0
0 0 0 0 0 0 0 0 0 0 0 0 0 0 0 0 0 0 0 0 0 0 0 0 0 0 0 0 0 0 0 0 0 0 0 0 0 0 0 0 0 0 0
0 0 0 0 0 0 0 0 0 0 0 0 0 0 0 0 0 0 0 0 0 0 0 0 0 0 0 0 0 0 0 0 0 0 0 0 0 0 0 0 0 0 0
0 0 0 0 0 0 0 0 0 0 0 0 0 0 0 0 0 0 0 0 0 0 0 0 0 0 0 0 0 0 0 0 0 0 0 0 0 0 0 0 0 0 0
0 0 0 0 0 0 0 0 0 0 0 0 0 0 0 0 0 0 0 0 0 0 0 0 0 0 0 0 0 0 0 0 0 0 0 0 0 0 0 0 0 0 0
0 0 0 0 0 0 0 0 0 0 0 0 0 0 0 0 0 0 0 0 0 0 0 0 0 0 0 0 0 0 0 0 0 0 0 0 0 0 0 0 0 0 0
0 0 0 0 0 0 0 0 0 0 0 0 0 0 0 0 0 0 0 0 0 0 0 0 0 0 0 0 0 0 0 0 0 0 0 0 0 0 0 0 0 0 0
0 0 0 0 0 0 0 0 0 0 0 0 0 0 0 0 0 0 0 0 0 0 0 0 0 0 0 0 0 0 0 0 0 0 0 0 0 0 0 0 0 0 0
0 0 0 0 0 0 0 0 0 0 0 0 0 0 0 0 0 0 0 0 0 0 0 0 0 0 0 0 0 0 0 0 0 0 0 0 0 0 0 0 0 0 0
0 0 0 0 0 0 0 0 0 0 0 0 0 0 0 0 0 0 0 0 0 0 0 0 0 0 0 0 0 0 0 0 0 0 0 0 0 0 0 0 0 0 0
0 0 0 0 0 0 0 0 0 0 0 0 0 0 0 0 0 0 0 0 0 0 0 0 0 0 0 0 0 0 0 0 0 0 0 0 0 0 0 0 0 0 0
0 0 0 0 0 0 0 0 0 0 0 0 0 0 0 0 0 0 0 0 0 0 0 0 0 0 0 0 0 0 0 0 0 0 0 0 0 0 0 0 0 0 0
0 0 0 0 0 0 0 0 0 0 0 0 0 0 0 0 0 0 0 0 0 0 0 0 0 0 0 0 0 0 0 0 0 0 0 0 0 0 0 0 0 0 0
0 0 0 0 0 0 0 0 0 0 0 0 0 0 0 0 0 0 0 0 0 0 0 0 0 0 0 0 0 0 0 0 0 0 0 0 0 0 0 0 0 0 0
0 0 0 0 0 0 0 0 0 0 0 0 0 0 0 0 0 0 0 0 0 0 0 0 0 0 0 0 0 0 0 0 0 0 0 0 0 0 0 0 0 0 0
0 0 0 0 0 0 0 0 0 0 0 0 0 0 0 0 0 0 0 0 0 0 0 0 0 0 0 0 0 0 0 0 0 0 0 0 0 0 0 0 0 0 0
0 0 0 0 0 0 0 0 0 0 0 0 0 0 0 0 0 0 0 0 0 0 0 0 0 0 0 0 0 0 0 0 0 0 0 0 0 0 0 0 0 0 0
0 0 0 0 0 0 0 0 0 0 0 0 0 0 0 0 0 0 0 0 0 0 0 0 0 0 0 0 0 0 0 0 0 0 0 0 0 0 0 0 0 0 0
Wind_Speed_500mb
53 46 30 17 5 22 26 18 17 16 15 15 13 13 16 17 17 17 17 18 21 23 25 25 27 27 27 31 36 39 42 49 60 73 71 73 75 80 84 86 89 93 94
33 21 5 10 33 25 17 16 17 16 15 13 14 15 17 16 17 18 19 21 23 26 28 27 27 28 30 33 38 42 46 49 62 74 73 76 76 82 87 91 93 95 93
30 36 34 30 26 18 21 20 18 17 16 16 17 17 18 18 17 19 22 24 26 27 28 30 30 31 34 36 40 45 49 57 61 68 73 75 80 86 92 93 96 96 95
42 38 30 25 24 27 24 22 21 19 18 18 19 19 19 20 21 21 24 26 28 31 31 32 33 36 37 39 41 47 54 61 59 62 72 77 81 85 88 97 102 96 102
38 36 32 32 30 28 26 25 22 20 21 23 24 24 23 21 23 24 26 28 28 29 32 35 36 38 40 40 44 48 54 55 58 63 68 74 80 88 90 91 88 96 98
36 35 34 32 30 28 29 27 25 26 28 30 30 27 27 25 25 24 25 29 30 33 33 35 36 38 36 39 40 46 50 51 50 56 62 68 73 79 81 79 83 83 93
36 37 36 35 33 33 33 31 31 32 34 35 35 32 29 29 29 28 29 32 33 33 34 35 36 37 40 42 42 46 47 45 46 51 55 60 69 69 74 80 79 81 87
42 41 39 38 38 39 36 36 36 38 40 39 38 35 34 34 34 34 32 32 33 35 36 36 35 37 38 41 47 49 49 50 51 48 48 55 57 60 58 61 71 80 81
46 44 41 40 42 42 39 38 40 44 44 44 43 40 40 39 39 38 36 33 33 35 38 37 37 36 36 41 48 50 50 51 50 45 47 49 52 53 54 62 66 72 88
44 43 42 43 44 42 40 41 46 47 48 49 47 46 46 44 44 41 39 36 34 38 36 36 35 33 36 41 46 47 50 51 53 54 49 46 49 51 50 51 54 61 67
41 43 44 44 41 40 44 46 47 51 53 55 53 51 51 50 48 45 42 41 37 39 38 36 32 33 36 40 43 45 46 47 49 52 53 51 50 51 53 54 50 49 56
42 42 41 40 40 43 46 49 52 54 57 57 57 58 56 53 52 49 45 45 41 41 39 34 32 32 35 38 41 43 47 49 50 51 52 53 55 55 56 56 54 50 45
36 38 39 41 43 47 49 53 56 58 60 61 63 63 58 56 55 51 48 46 43 43 39 34 33 34 36 38 40 43 46 47 50 51 51 52 54 56 56 57 56 55 54
35 38 40 44 48 52 57 59 60 62 62 62 64 64 59 58 57 53 50 48 45 42 38 35 34 35 37 42 43 43 44 46 48 49 50 52 53 55 55 56 60 63 67
40 43 48 53 57 60 62 63 64 64 63 64 65 63 62 63 57 53 54 48 44 42 41 34 34 36 38 42 43 42 44 45 46 46 47 50 52 53 52 52 54 59 60
50 53 56 60 63 66 68 70 70 70 67 66 65 65 62 60 56 56 55 48 42 43 39 35 37 39 42 44 44 45 43 44 43 45 46 48 51 50 51 49 51 53 57
53 55 57 60 64 68 71 73 74 66 67 67 64 61 61 55 53 52 44 43 37 41 40 38 39 40 43 43 45 48 46 41 43 44 46 46 47 46 47 47 50 51 52
51 55 59 62 65 68 69 70 71 71 68 65 60 59 55 49 49 48 45 38 45 45 39 41 41 42 43 44 47 48 45 43 44 45 43 43 43 44 44 43 45 47 48
57 59 61 64 67 69 70 70 70 70 69 64 58 57 57 56 50 56 46 50 46 42 43 43 43 43 43 47 49 47 48 47 47 46 43 41 38 38 40 40 41 39 41
52 54 56 59 60 62 63 64 64 63 63 62 59 55 53 53 58 57 56 47 42 42 45 44 42 43 46 48 47 48 49 46 43 42 41 39 36 34 37 38 36 38 36
48 51 55 58 59 59 61 60 59 59 60 60 60 53 50 54 57 57 55 51 45 46 45 43 42 44 46 45 46 45 44 40 36 38 38 35 32 32 31 33 32 31 33
48 50 53 55 55 56 57 57 57 58 59 58 56 50 48 55 52 53 50 47 46 45 42 42 42 42 41 40 37 36 35 34 32 34 34 30 28 28 28 28 26 26 29
56 60 61 62 62 62 61 59 58 56 56 54 52 48 46 53 46 43 45 44 41 39 40 41 40 37 33 29 30 31 32 33 32 32 30 25 24 25 26 25 22 23 26
62 64 65 65 64 64 63 61 59 57 55 53 51 48 46 46 47 46 43 40 37 38 37 36 35 29 24 22 22 25 30 31 29 27 26 25 24 23 22 21 19 20 23
69 70 71 70 69 67 65 62 60 57 55 52 50 48 45 45 46 45 43 36 34 33 34 31 28 24 21 16 19 23 23 22 20 18 22 25 24 22 20 21 20 21 23
77 77 76 74 72 70 67 64 61 57 54 51 48 46 43 42 42 43 37 31 33 33 27 26 24 20 14 13 18 20 16 13 13 18 25 28 29 25 22 22 20 22 23
Wind_Direction_500mb
143 138 134 122 86 322 297 229 256 256 258 261 277 305 312 318 326 330 334 342 344 345 345 343 339 340 337 333 331 333 332 330 326 324 331 335 337 336 337 338 338 338 338
145 136 105 272 285 230 244 255 255 250 256 271 286 294 303 313 318 322 330 340 341 337 333 330 329 329 327 328 328 330 329 330 330 328 334 335 336 338 337 338 339 338 340
198 228 244 260 220 252 256 247 246 256 263 274 280 289 301 301 308 319 327 328 329 326 323 321 323 321 322 327 328 328 331 333 333 329 331 335 337 339 336 336 337 338 340
225 240 217 217 245 250 247 244 252 259 268 273 280 288 293 299 307 315 320 321 322 317 315 315 317 318 320 325 328 331 334 332 333 331 334 334 336 336 336 336 335 338 337
216 204 220 240 246 248 248 252 259 266 270 275 277 281 286 294 303 310 310 307 305 307 313 312 312 314 320 325 329 329 332 335 335 332 332 332 335 336 335 334 331 332 334
202 225 242 250 250 252 253 259 267 269 271 273 274 277 280 286 291 298 298 299 303 305 305 304 307 309 314 319 322 328 334 336 332 329 330 330 331 331 330 329 328 330 329
228 243 251 253 257 256 257 263 266 269 271 271 270 270 275 281 292 295 293 294 298 300 301 302 303 308 314 315 321 332 331 330 329 328 325 329 326 329 326 326 326 322 323
247 251 251 256 258 258 259 263 268 271 270 270 270 270 275 279 283 285 287 290 292 294 296 297 300 303 307 317 325 330 327 328 328 327 325 325 324 324 321 319 318 318 320
250 252 254 258 260 261 263 266 270 271 272 274 271 270 271 273 277 278 283 284 286 291 293 294 294 303 314 319 320 323 324 324 323 327 328 325 323 325 324 322 327 327 326
255 257 259 261 261 265 266 269 271 275 277 274 272 270 270 272 273 273 278 279 281 282 288 287 298 305 310 313 314 321 322 320 326 328 326 324 324 326 329 330 328 327 328
256 257 260 262 265 266 267 274 280 280 278 276 273 270 270 270 270 269 272 278 276 280 281 286 294 295 303 309 314 321 320 315 321 319 323 325 328 332 333 332 331 329 326
255 260 265 267 268 269 273 278 280 281 281 279 276 273 272 270 269 268 269 273 273 276 280 285 285 290 300 309 314 315 313 317 318 318 321 326 330 332 333 330 330 331 332
265 267 267 267 268 273 279 283 282 282 281 281 276 275 273 270 268 266 265 265 267 271 279 283 284 292 303 309 311 310 314 317 316 317 322 327 329 329 328 327 331 334 334
267 267 269 272 277 280 280 280 281 281 281 280 278 277 277 270 267 264 263 261 264 267 276 281 282 292 303 308 309 311 315 314 314 317 321 323 324 324 327 332 335 337 335
275 274 273 275 277 280 282 283 282 282 281 280 279 276 271 269 271 268 263 260 259 262 269 274 279 291 299 300 305 313 315 312 311 313 316 319 320 322 328 333 335 336 338
278 279 281 283 284 284 283 283 282 282 281 281 279 276 273 270 264 261 260 258 259 262 275 277 279 288 294 300 307 311 311 308 306 308 313 316 319 322 327 333 334 336 337
288 288 286 284 284 284 283 283 284 282 281 279 277 274 274 272 266 260 243 247 249 249 270 270 277 285 292 301 306 307 307 305 305 308 311 313 317 321 326 332 333 335 336
290 289 288 288 287 286 286 285 283 281 280 278 276 275 273 262 260 250 238 236 244 258 266 269 277 285 295 301 303 302 302 304 302 302 304 308 312 316 323 328 330 333 335
298 297 296 294 293 292 290 288 286 285 283 281 275 268 263 260 238 244 234 245 251 259 264 268 277 287 295 298 299 300 302 304 302 302 304 303 306 312 318 322 326 329 332
305 304 303 301 300 299 297 293 291 287 284 280 276 273 267 256 246 247 248 253 254 255 259 267 278 287 294 297 300 301 301 303 303 302 302 301 302 306 311 316 322 324 331
318 317 314 311 308 304 299 296 293 288 284 281 278 275 267 260 257 254 253 253 255 254 260 269 280 289 295 298 302 303 305 310 313 308 305 303 300 299 304 312 318 319 326
323 320 317 314 310 307 304 299 295 290 286 282 279 274 264 260 254 249 243 246 248 254 263 274 285 292 295 299 301 305 314 321 321 316 315 312 302 300 306 311 314 317 324
323 322 320 318 316 312 309 305 300 295 291 286 280 273 262 256 257 247 242 243 249 258 268 280 288 291 293 299 306 314 322 327 328 325 324 321 309 305 306 309 311 317 326
317 316 314 313 311 308 306 303 299 295 291 285 280 273 264 256 249 244 243 243 250 261 273 282 283 286 293 300 307 315 320 325 328 330 328 326 322 315 311 305 305 312 322
312 311 310 308 306 304 302 300 297 294 289 284 277 270 262 251 243 239 239 242 254 267 272 272 279 284 291 299 315 324 324 325 331 337 337 339 338 330 319 310 311 307 311
309 308 306 304 302 300 298 296 293 290 286 282 276 269 259 248 240 240 239 245 255 261 260 269 269 273 271 303 319 329 329 336 338 329 330 333 334 330 314 305 301 300 311
Wind_Speed_850mb
53 46 30 17 5 22 26 18 17 16 15 15 13 13 16 17 17 17 17 18 21 23 25 25 27 27 27 31 36 39 42 49 60 73 71 73 75 80 84 86 89 93 94
33 21 5 10 33 25 17 16 17 16 15 13 14 15 17 16 17 18 19 21 23 26 28 27 27 28 30 33 38 42 46 49 62 74 73 76 76 82 87 91 93 95 93
30 36 34 30 26 18 21 20 18 17 16 16 17 17 18 18 17 19 22 24 26 27 28 30 30 31 34 36 40 45 49 57 61 68 73 75 80 86 92 93 96 96 95
42 38 30 25 24 27 24 22 21 19 18 18 19 19 19 20 21 21 24 26 28 31 31 32 33 36 37 39 41 47 54 61 59 62 72 77 81 85 88 97 102 96 102
38 36 32 32 30 28 26 25 22 20 21 23 24 24 23 21 23 24 26 28 28 29 32 35 36 38 40 40 44 48 54 55 58 63 68 74 80 88 90 91 88 96 98
36 35 34 32 30 28 29 27 25 26 28 30 30 27 27 25 25 24 25 29 30 33 33 35 36 38 36 39 40 46 50 51 50 56 62 68 73 79 81 79 83 83 93
36 37 36 35 33 33 33 31 31 32 34 35 35 32 29 29 29 28 29 32 33 33 34 35 36 37 40 42 42 46 47 45 46 51 55 60 69 69 74 80 79 81 87
42 41 39 38 38 39 36 36 36 38 40 39 38 35 34 34 34 34 32 32 33 35 36 36 35 37 38 41 47 49 49 50 51 48 48 55 57 60 58 61 71 80 81
46 44 41 40 42 42 39 38 40 44 44 44 43 40 40 39 39 38 36 33 33 35 38 37 37 36 36 41 48 50 50 51 50 45 47 49 52 53 54 62 66 72 88
44 43 42 43 44 42 40 41 46 47 48 49 47 46 46 44 44 41 39 36 34 38 36 36 35 33 36 41 46 47 50 51 53 54 49 46 49 51 50 51 54 61 67
41 43 44 44 41 40 44 46 47 51 53 55 53 51 51 50 48 45 42 41 37 39 38 36 32 33 36 40 43 45 46 47 49 52 53 51 50 51 53 54 50 49 56
42 42 41 40 40 43 46 49 52 54 57 57 57 58 56 53 52 49 45 45 41 41 39 34 32 32 35 38 41 43 47 49 50 51 52 53 55 55 56 56 54 50 45
36 38 39 41 43 47 49 53 56 58 60 61 63 63 58 56 55 51 48 46 43 43 39 34 33 34 36 38 40 43 46 47 50 51 51 52 54 56 56 57 56 55 54
35 38 40 44 48 52 57 59 60 62 62 62 64 64 59 58 57 53 50 48 45 42 38 35 34 35 37 42 43 43 44 46 48 49 50 52 53 55 55 56 60 63 67
40 43 48 53 57 60 62 63 64 64 63 64 65 63 62 63 57 53 54 48 44 42 41 34 34 36 38 42 43 42 44 45 46 46 47 50 52 53 52 52 54 59 60
50 53 56 60 63 66 68 70 70 70 67 66 65 65 62 60 56 56 55 48 42 43 39 35 37 39 42 44 44 45 43 44 43 45 46 48 51 50 51 49 51 53 57
53 55 57 60 64 68 71 73 74 66 67 67 64 61 61 55 53 52 44 43 37 41 40 38 39 40 43 43 45 48 46 41 43 44 46 46 47 46 47 47 50 51 52
51 55 59 62 65 68 69 70 71 71 68 65 60 59 55 49 49 48 45 38 45 45 39 41 41 42 43 44 47 48 45 43 44 45 43 43 43 44 44 43 45 47 48
57 59 61 64 67 69 70 70 70 70 69 64 58 57 57 56 50 56 46 50 46 42 43 43 43 43 43 47 49 47 48 47 47 46 43 41 38 38 40 40 41 39 41
52 54 56 59 60 62 63 64 64 63 63 62 59 55 53 53 58 57 56 47 42 42 45 44 42 43 46 48 47 48 49 46 43 42 41 39 36 34 37 38 36 38 36
48 51 55 58 59 59 61 60 59 59 60 60 60 53 50 54 57 57 55 51 45 46 45 43 42 44 46 45 46 45 44 40 36 38 38 35 32 32 31 33 32 31 33
48 50 53 55 55 56 57 57 57 58 59 58 56 50 48 55 52 53 50 47 46 45 42 42 42 42 41 40 37 36 35 34 32 34 34 30 28 28 28 28 26 26 29
56 60 61 62 62 62 61 59 58 56 56 54 52 48 46 53 46 43 45 44 41 39 40 41 40 37 33 29 30 31 32 33 32 32 30 25 24 25 26 25 22 23 26
62 64 65 65 64 64 63 61 59 57 55 53 51 48 46 46 47 46 43 40 37 38 37 36 35 29 24 22 22 25 30 31 29 27 26 25 24 23 22 21 19 20 23
69 70 71 70 69 67 65 62 60 57 55 52 50 48 45 45 46 45 43 36 34 33 34 31 28 24 21 16 19 23 23 22 20 18 22 25 24 22 20 21 20 21 23
77 77 76 74 72 70 67 64 61 57 54 51 48 46 43 42 42 43 37 31 33 33 27 26 24 20 14 13 18 20 16 13 13 18 25 28 29 25 22 22 20 22 23
Wind_Direction_850mb
143 138 134 122 86 322 297 229 256 256 258 261 277 305 312 318 326 330 334 342 344 345 345 343 339 340 337 333 331 333 332 330 326 324 331 335 337 336 337 338 338 338 338
145 136 105 272 285 230 244 255 255 250 256 271 286 294 303 313 318 322 330 340 341 337 333 330 329 329 327 328 328 330 329 330 330 328 334 335 336 338 337 338 339 338 340
198 228 244 260 220 252 256 247 246 256 263 274 280 289 301 301 308 319 327 328 329 326 323 321 323 321 322 327 328 328 331 333 333 329 331 335 337 339 336 336 337 338 340
225 240 217 217 245 250 247 244 252 259 268 273 280 288 293 299 307 315 320 321 322 317 315 315 317 318 320 325 328 331 334 332 333 331 334 334 336 336 336 336 335 338 337
216 204 220 240 246 248 248 252 259 266 270 275 277 281 286 294 303 310 310 307 305 307 313 312 312 314 320 325 329 329 332 335 335 332 332 332 335 336 335 334 331 332 334
202 225 242 250 250 252 253 259 267 269 271 273 274 277 280 286 291 298 298 299 303 305 305 304 307 309 314 319 322 328 334 336 332 329 330 330 331 331 330 329 328 330 329
228 243 251 253 257 256 257 263 266 269 271 271 270 270 275 281 292 295 293 294 298 300 301 302 303 308 314 315 321 332 331 330 329 328 325 329 326 329 326 326 326 322 323
247 251 251 256 258 258 259 263 268 271 270 270 270 270 275 279 283 285 287 290 292 294 296 297 300 303 307 317 325 330 327 328 328 327 325 325 324 324 321 319 318 318 320
250 252 254 258 260 261 263 266 270 271 272 274 271 270 271 273 277 278 283 284 286 291 293 294 294 303 314 319 320 323 324 324 323 327 328 325 323 325 324 322 327 327 326
255 257 259 261 261 265 266 269 271 275 277 274 272 270 270 272 273 273 278 279 281 282 288 287 298 305 310 313 314 321 322 320 326 328 326 324 324 326 329 330 328 327 328
256 257 260 262 265 266 267 274 280 280 278 276 273 270 270 270 270 269 272 278 276 280 281 286 294 295 303 309 314 321 320 315 321 319 323 325 328 332 333 332 331 329 326
255 260 265 267 268 269 273 278 280 281 281 279 276 273 272 270 269 268 269 273 273 276 280 285 285 290 300 309 314 315 313 317 318 318 321 326 330 332 333 330 330 331 332
265 267 267 267 268 273 279 283 282 282 281 281 276 275 273 270 268 266 265 265 267 271 279 283 284 292 303 309 311 310 314 317 316 317 322 327 329 329 328 327 331 334 334
267 267 269 272 277 280 280 280 281 281 281 280 278 277 277 270 267 264 263 261 264 267 276 281 282 292 303 308 309 311 315 314 314 317 321 323 324 324 327 332 335 337 335
275 274 273 275 277 280 282 283 282 282 281 280 279 276 271 269 271 268 263 260 259 262 269 274 279 291 299 300 305 313 315 312 311 313 316 319 320 322 328 333 335 336 338
278 279 281 283 284 284 283 283 282 282 281 281 279 276 273 270 264 261 260 258 259 262 275 277 279 288 294 300 307 311 311 308 306 308 313 316 319 322 327 333 334 336 337
288 288 286 284 284 284 283 283 284 282 281 279 277 274 274 272 266 260 243 247 249 249 270 270 277 285 292 301 306 307 307 305 305 308 311 313 317 321 326 332 333 335 336
290 289 288 288 287 286 286 285 283 281 280 278 276 275 273 262 260 250 238 236 244 258 266 269 277 285 295 301 303 302 302 304 302 302 304 308 312 316 323 328 330 333 335
298 297 296 294 293 292 290 288 286 285 283 281 275 268 263 260 238 244 234 245 251 259 264 268 277 287 295 298 299 300 302 304 302 302 304 303 306 312 318 322 326 329 332
305 304 303 301 300 299 297 293 291 287 284 280 276 273 267 256 246 247 248 253 254 255 259 267 278 287 294 297 300 301 301 303 303 302 302 301 302 306 311 316 322 324 331
318 317 314 311 308 304 299 296 293 288 284 281 278 275 267 260 257 254 253 253 255 254 260 269 280 289 295 298 302 303 305 310 313 308 305 303 300 299 304 312 318 319 326
323 320 317 314 310 307 304 299 295 290 286 282 279 274 264 260 254 249 243 246 248 254 263 274 285 292 295 299 301 305 314 321 321 316 315 312 302 300 306 311 314 317 324
323 322 320 318 316 312 309 305 300 295 291 286 280 273 262 256 257 247 242 243 249 258 268 280 288 291 293 299 306 314 322 327 328 325 324 321 309 305 306 309 311 317 326
317 316 314 313 311 308 306 303 299 295 291 285 280 273 264 256 249 244 243 243 250 261 273 282 283 286 293 300 307 315 320 325 328 330 328 326 322 315 311 305 305 312 322
312 311 310 308 306 304 302 300 297 294 289 284 277 270 262 251 243 239 239 242 254 267 272 272 279 284 291 299 315 324 324 325 331 337 337 339 338 330 319 310 311 307 311
309 308 306 304 302 300 298 296 293 290 286 282 276 269 259 248 240 240 239 245 255 261 260 269 269 273 271 303 319 329 329 336 338 329 330 333 334 330 314 305 301 300 311